This is the latest recevied weather packets stored in our database for station/object K5NCO. If no packets are shown the sender has not sent any weather packets the latest 10 day(s).
| Time | Temp. | Humidity | Pressure | Rain* | Wind** | Luminosity | Snow |
|---|---|---|---|---|---|---|---|
| 1777754371 | 22.78° C | 43% | 1022.4 hPa | 0 mm | - | 158 W/m² | - |
| 1777754068 | 22.78° C | 46% | 1022.5 hPa | 0 mm | - | 652 W/m² | - |
| 1777753764 | 22.22° C | 43% | 1022.6 hPa | 0 mm | - | 660 W/m² | - |
| 1777753461 | 22.78° C | 45% | 1022.6 hPa | 0 mm | - | 655 W/m² | - |
| 1777753159 | 22.78° C | 43% | 1022.8 hPa | 0 mm | - | 659 W/m² | - |
| 1777752855 | 22.22° C | 42% | 1022.8 hPa | 0 mm | - | 673 W/m² | - |
| 1777752552 | 22.22° C | 44% | 1022.9 hPa | 0 mm | - | 676 W/m² | - |
| 1777752247 | 22.22° C | 42% | 1022.8 hPa | 0 mm | - | 684 W/m² | - |
| 1777751946 | 22.78° C | 42% | 1022.8 hPa | 0 mm | - | 689 W/m² | - |
| 1777751642 | 22.22° C | 42% | 1022.5 hPa | 0 mm | - | 696 W/m² | - |
| 1777751339 | 22.22° C | 43% | 1022.6 hPa | 0 mm | - | 701 W/m² | - |
| 1777751035 | 22.78° C | 44% | 1022.8 hPa | 0 mm | - | 707 W/m² | - |
| 1777750731 | 22.22° C | 44% | 1022.6 hPa | 0 mm | - | 712 W/m² | - |
| 1777750429 | 21.67° C | 44% | 1022.6 hPa | 0 mm | - | 724 W/m² | - |
| 1777750124 | 21.67° C | 43% | 1023.1 hPa | 0 mm | - | 727 W/m² | - |
| 1777749821 | 22.22° C | 45% | 1022.9 hPa | 0 mm | - | 732 W/m² | - |
| 1777749518 | 21.67° C | 46% | 1023 hPa | 0 mm | - | 734 W/m² | - |
| 1777749217 | 21.67° C | 48% | 1022.8 hPa | 0 mm | - | 738 W/m² | - |
| 1777748913 | 21.67° C | 48% | 1023 hPa | 0 mm | - | 741 W/m² | - |
| 1777748611 | 21.67° C | 48% | 1023 hPa | 0 mm | - | 747 W/m² | - |
| 1777748306 | 21.11° C | 48% | 1023.2 hPa | 0 mm | - | 744 W/m² | - |
| 1777748002 | 21.67° C | 49% | 1023 hPa | 0 mm | - | 751 W/m² | - |
| 1777747700 | 21.67° C | 50% | 1023 hPa | 0 mm | - | 752 W/m² | - |
| 1777747395 | 21.11° C | 47% | 1023.3 hPa | 0 mm | - | 756 W/m² | - |
| 1777747092 | 20.56° C | 49% | 1023.1 hPa | 0 mm | - | 752 W/m² | - |
* Rain latest hour (hover to see other rain measurements)
** Current wind speed in m/s (hover to see current wind gust speed)